Regional Weather Roundup
Issued by NWS

Home | Current Version | Previous Version | Graphics & Text | Print | Product List | Glossary On
Versions: 1 2 3 4 5 6 7 8 9 10 11 12 13 14 15 16 17 18 19 20 21 22 23 24 25 26 27 28 29 30 31 32 33 34 35 36 37 38 39 40 41 42 43 44 45 46 47 48 49 50
000
ASUS43 KDMX 250106
RWRIA

WEATHER ROUNDUP FOR IOWA
NATIONAL WEATHER SERVICE DES MOINES IA
800 PM CDT TUE APR 24 2018

NOTE: "FAIR" INDICATES FEW OR NO CLOUDS BELOW 12,000 FEET WITH NO
SIGNIFICANT WEATHER AND/OR OBSTRUCTIONS TO VISIBILITY.

* - THESE STATIONS ARE NOT NWS STATIONS...THUS NOT UNDER NWS
QUALITY CONTROL.  THEY ALSO DO NOT REPORT WEATHER SUCH
AS PRECIPITATION OR FOG.

IAZ001>003-012>014-020>022-031>034-043>046-250200-
   NORTHWEST IOWA

CITY           SKY/WX    TMP DP  RH WIND       PRES   REMARKS
CARROLL *      CLOUDY    54  41  62 N22G29    30.15R
CHEROKEE *     LGT RAIN  47  46  94 N18       30.22R
DENISON *      CLOUDY    52  43  71 N18G24    30.19R
LE MARS *      CLOUDY    46  45  93 N17       30.23S FOG
ORANGE CITY *  DRIZZLE   46  45  93 N9        30.24R
SHELDON *      CLOUDY    45  43  93 N14G21    30.23R
SIOUX CITY     LGT RAIN  48  45  89 N10       30.23R
SPENCER        CLOUDY    48  41  76 N13       30.22R
STORM LAKE *   LGT RAIN  48  45  87 N21       30.19R
$$

IAZ055>058-069>071-079>083-090>094-250200-
   SOUTHWEST IOWA

CITY           SKY/WX    TMP DP  RH WIND       PRES   REMARKS
ATLANTIC *     CLOUDY    59  45  58 N15G23    30.14R
AUDUBON *      DRIZZLE   55  45  67 N15G22    30.16R
CLARINDA *     CLOUDY    63  43  48 NW18      30.13R
COUNCIL BLFS * CLOUDY    54  54 100 NW13      30.18R
CRESTON *      CLOUDY    64  41  42 N10       30.09R
HARLAN  *      CLOUDY    57  45  62 N14G20    30.20R
LAMONI         CLOUDY    67  38  34 NE10      30.05S
RED OAK *      CLOUDY    63  43  48 NW15      30.15R
SHENANDOAH *   CLOUDY    57  48  72 NW16G25   30.16R
$$

IAZ047>049-059>061-072>074-084-250200-
   CENTRAL IOWA

CITY           SKY/WX    TMP DP  RH WIND       PRES   REMARKS
AMES           CLOUDY    60  47  61 N16G28    30.11R
ANKENY *       CLOUDY    63  45  51 N13       30.11R
BOONE *        MOCLDY    57  45  62 N21G28    30.11R
CHARITON *     MOCLDY    64  41  42 N9        30.06R
DES MOINES     CLOUDY    65  43  44 N17       30.09R
GRINNELL*      PTCLDY    62  45  52 N14       30.08R
KNOXVILLE *    MOCLDY    66  39  37 N15       30.05R
MARSHALLTOWN   PTCLDY    62  47  57 N13       30.07R
NEWTON *       PTCLDY    64  45  48 N15G28    30.08R
PELLA *        PTCLDY    65  42  42 N12G18    30.07R
PERRY *        CLOUDY    58  41  53 N20       30.12R
$$

IAZ004>006-015-016-023>025-035-036-250200-
   NORTH CENTRAL IOWA

CITY           SKY/WX    TMP DP  RH WIND       PRES   REMARKS
ALGONA *       CLOUDY    50  46  87 N15G22    30.18R
CLARION *      CLOUDY    54  43  66 N16G23    30.14R
ESTHERVILLE    CLOUDY    46  42  86 N16       30.20R
FORT DODGE *   CLOUDY    54  42  64 N10       30.17R
MASON CITY     CLOUDY    54  41  61 NW15      30.14R
FOREST CITY *  CLOUDY    54  41  62 N20G26    30.15S
WEBSTER CITY * CLOUDY    55  41  58 N16G22    30.13R
IOWA FALLS *   CLOUDY    58  44  60 NW17G23   30.12R
$$

IAZ007>011-017>019-026>030-037>042-050>054-066-250200-
   NORTHEAST IOWA

CITY           SKY/WX    TMP DP  RH WIND       PRES   REMARKS
CEDAR RAPIDS   MOCLDY    67  39  35 NW16      30.01S
CHARLES CITY * FAIR      59  41  51 NW20      30.10R
CLINTON *      FAIR      62  32  32 N9        29.99S
DECORAH *      CLOUDY    63  41  45 NW12G17   30.05S
DUBUQUE        FAIR      62  36  37 N9        30.01S
MONTICELLO *   CLOUDY    66  39  37 N12G17    30.01R
OELWEIN *      FAIR      61  43  51 N9        30.06R
WATERLOO       FAIR      59  44  57 NW10      30.06R
$$

IAZ064-065-067-068-078-250200-
   EAST CENTRAL IOWA

CITY           SKY/WX    TMP DP  RH WIND       PRES   REMARKS
DAVENPORT      FAIR      62  30  29 N8        30.01R
IOWA CITY      CLOUDY    71  35  26 N10       30.02R
MT. PLEASANT * PTCLDY    66  30  26 NW5       30.00S
MUSCATINE *    CLOUDY    66  32  28 N7        30.00R
QUAD CITIES    FAIR      69  31  24 N5        29.98R
$$

IAZ062-063-075>077-085>089-095>099-250200-
   SOUTHEAST IOWA

CITY           SKY/WX    TMP DP  RH WIND       PRES   REMARKS
BURLINGTON     CLOUDY    69  28  21 NW6       29.99R
FAIRFIELD *    PTCLDY    63  32  31 N10       30.02R
FORT MADISON * CLOUDY    64  34  32 N5        30.01R
KEOKUK *       CLOUDY    68  30  24 CALM      29.99S
OSKALOOSA *    FAIR      66  39  36 N13       30.05R
CENTERVILLE *  FAIR      66  36  32 NW12      30.06R
OTTUMWA        MOCLDY    66  40  38 N14       30.03R
WASHINGTON *   CLOUDY    68  36  30 NW12      30.02R
$$

ABBREVIATIONS USED IN REMARKS
   TC - TEMPERATURES IN CELSIUS
  WCI - WIND CHILL INDEX
   HX - HEAT INDEX
  VSB - VISIBILITY
$$




USA.gov is the U.S. government's official web portal to all federal, state and local government web resources and services.